TimeEDT,TemperatureF,Dew PointF,Humidity,Sea Level PressureIn,VisibilityMPH,Wind Direction,Wind SpeedMPH,Gust SpeedMPH,PrecipitationIn,Events,Conditions,WindDirDegrees,DateUTC
12:51 AM,37.9,12.9,36,30.33,10.0,ENE,4.6,-,N/A,,Clear,70,2013-04-04 04:51:00
1:51 AM,37.0,16.0,42,30.32,10.0,NE,8.1,-,N/A,,Clear,50,2013-04-04 05:51:00
2:51 AM,36.0,16.0,44,30.30,10.0,NE,5.8,-,N/A,,Clear,40,2013-04-04 06:51:00
3:51 AM,36.0,15.1,43,30.27,10.0,ENE,8.1,-,N/A,,Clear,60,2013-04-04 07:51:00
4:51 AM,35.1,14.0,42,30.26,10.0,ENE,8.1,-,N/A,,Clear,60,2013-04-04 08:51:00
5:51 AM,34.0,15.1,46,30.25,10.0,ENE,4.6,-,N/A,,Clear,60,2013-04-04 09:51:00
6:51 AM,34.0,14.0,44,30.24,10.0,NE,5.8,-,N/A,,Clear,50,2013-04-04 10:51:00
7:51 AM,34.0,15.1,46,30.24,10.0,ENE,6.9,-,N/A,,Clear,70,2013-04-04 11:51:00
8:51 AM,36.0,16.0,44,30.22,10.0,ENE,6.9,-,N/A,,Clear,70,2013-04-04 12:51:00
9:51 AM,39.0,17.1,41,30.20,10.0,East,5.8,-,N/A,,Clear,80,2013-04-04 13:51:00
10:51 AM,42.1,18.0,38,30.17,10.0,ENE,4.6,-,N/A,,Clear,70,2013-04-04 14:51:00
11:51 AM,48.0,18.0,30,30.14,10.0,Calm,Calm,-,N/A,,Clear,0,2013-04-04 15:51:00
12:51 PM,50.0,19.0,29,30.14,10.0,East,3.5,-,N/A,,Clear,80,2013-04-04 16:51:00
1:51 PM,51.1,19.9,29,30.12,10.0,Variable,3.5,-,N/A,,Clear,0,2013-04-04 17:51:00
2:51 PM,53.1,19.9,27,30.09,10.0,Variable,3.5,-,N/A,,Clear,0,2013-04-04 18:51:00
3:51 PM,54.0,19.0,25,30.06,10.0,Calm,Calm,-,N/A,,Clear,0,2013-04-04 19:51:00
4:51 PM,53.6,21.2,28,30.04,10.0,SW,4.6,-,N/A,,Mostly Cloudy,230,2013-04-04 20:51:00
5:51 PM,54.0,19.9,26,30.04,10.0,Calm,Calm,-,N/A,,Overcast,0,2013-04-04 21:51:00
6:51 PM,53.1,19.9,27,30.04,10.0,South,9.2,-,N/A,,Overcast,180,2013-04-04 22:51:00
7:51 PM,46.9,35.1,63,30.04,10.0,South,8.1,-,0.00,Rain,Light Rain,170,2013-04-04 23:51:00
8:51 PM,44.1,39.0,82,30.04,9.0,South,3.5,-,0.01,Rain,Light Rain,170,2013-04-05 00:51:00
9:51 PM,43.0,39.9,89,30.04,9.0,SSE,3.5,-,0.01,Rain,Light Rain,160,2013-04-05 01:51:00
10:51 PM,43.0,39.9,89,30.03,8.0,Variable,4.6,-,0.01,Rain,Light Rain,0,2013-04-05 02:51:00
11:51 PM,42.1,41.0,96,30.01,7.0,Calm,Calm,-,0.00,,Overcast,0,2013-04-05 03:51:00